Погода в Балашове

Погода в Балашове : погода сейчас, прогноз погоды и архив. Всё, что Вы хотите узнать о погоде в Балашове!

Хотите узнать прогноз погоды в Балашове? Тогда Вам сюда: Погода в Балашове

Поиск расширенной информации на нашем сайте:

Другие новости

Новости СМИ2

Главная страница сайта

Новости сайта

03.07.2017

Напоминаем, что на нашем специализированном сайте Метеоцентр.Азия вы можете получить высокодетализированные автоматические прогнозы погоды по пунктам России, СНГ и мира в авиационном формате (включающие направление и скорость ветра, видимость, явления погоды, количество и форму облачности, нижнюю и верхнюю границу облачности).


Погода в Балашове - сегодня

Время (UTC), дата Ветер
(°,м/с) 
Видим.   Явления Облачность Т
(°С)
Тd
(°С)
f(%) Тe
(°С)
Pmin
(гПа)
dP
(гПа)
Po
(мм)
O2
(г/м3)
Тmin Tmax R s Состояние
почвы
18 11.10.18 360 (С) 20000 м    ясно 
+7.2 +2.1 70 +6  1027.1  1.6  756  296           
21 11.10.18 010 (С) 20000 м    ясно 
+4.5 +1.6 81 +4  1029.3  1.9  757  300           
00 12.10.18 010 (С) 20000 м    ясно 
+1.1 -0.1 92 +2  1031  1.5  758  304           
06 12.10.18 340 (С) 20000 м    ясно 
+5.8 +2.7 80 +6  1034.3  2.1  761  300  -0.8         
15 12.10.18 300 (СЗ) 20000 м    ясно 
+8.8 +1.4 60 +9  1032.9  -0.5  760  296    +13.1       
18 12.10.18 290 (З) 20000 м    ясно 
+7.5 +1.5 66 +7  1032.4  -0.6  760  298           
21 12.10.18 220 (ЮЗ) 20000 м    ясно 
+4.9 +1 76 +5  1031.4  -1.1  759  300           
00 13.10.18 260 (З) 20000 м    ясно 
+6 +1.5 73 +4  1030.4  -0.9  758  299           
06 13.10.18 300 (СЗ) 20000 м    ясно 
+8.9 +4.1 72 +8  1028.9  -0.3  757  295           
09 13.10.18 290 (З) 20000 м    8/0 верхняя 
[Ci fib]
+14.6 +7.7 63 +14  1027.5  -1  756  288           
12 13.10.18 310 (СЗ) 20000 м    10/0 средняя 
[Ac und]
+15.5 +7.9 61 +15  1026.9  -0.5  756  287           
18 13.10.18 300 (СЗ) 20000 м    ясно 
+10.4 +7.7 83 +11  1026.4  -0.2  755  292           
21 13.10.18 290 (З) 20000 м    ясно 
+8.2 +7.1 93 +8  1025.7  -0.8  755  294           
03 14.10.18 310 (СЗ) 20000 м    10/0 верхняя 
[Ci fib]
+5.5 +4.6 94 +6  1025.7  -0.3  755  297  +5.4        сухая 
06 14.10.18 310 (СЗ) 20000 м    10/0 верхняя 
[Ci fib]
+7.6 +6.4 92 +9  1025.6  755  295  +4.1         
09 14.10.18 310 (СЗ) 20000 м    10/4 1000 м средняя 
[Sc|Ac trans]
+13.2 +9.7 79 +15  1025.6  0.4  755  288           
12 14.10.18 320 (СЗ) 20000 м    10/4 1000 м средняя, верхняя 
[Sc|Ac trans|Ci fib]
+14.8 +9.7 71 +16  1024.4  -1.1  754  287           
18 14.10.18 030 (СВ) 20000 м    10/3 1000 м средняя 
[Sc|Ac trans]
+10.3 +10 98 +12  1024.5  0.1  754  291           
21 14.10.18 300 (СЗ) 20000 м    10/0 средняя 
[Ac trans]
+9.7 +8.2 90 +11  1024.6  754  292           
00 15.10.18 300 (СЗ) 20000 м    10/0 средняя 
[Ac trans]
+8.2 +7.1 93 +9  1024.4  -0.2  754  294           
03 15.10.18 290 (З) 20000 м    3/0 верхняя 
[Ci fib]
+7.8 +7.1 95 +8  1024.4  0.1  754  294  +6.6        сухая 
06 15.10.18 350 (С) 20000 м    5/5 200 м 
[St]
+11.3 +10.6 95 +13  1024.6  0.5  754  290           
09 15.10.18 320 (СЗ) 20000 м    9/0 средняя 
[Ac trans]
+16.5 +11.8 74 +21  1024.4  0.1  754  284           
12 15.10.18 310 (СЗ) 20000 м    5/0 верхняя 
[Ci fib]
+19.7 +12.4 63 +25  1024.1  754  281           
15 15.10.18 320 (СЗ) 20000 м    ясно 
+14.7 +11.9 83 +20  1025.3  0.8  755  286    +20.2       
Время (UTC), дата Ветер
(°,м/с) 
Видим.   Явления Облачность Т
(°С)
Тd
(°С)
f(%) Тe
(°С)
Pmin
(гПа)
dP
(гПа)
Po
(мм)
O2
(г/м3)
Тmin Tmax R s Состояние
почвы

Для получения пояснительной информации подведите курсор к названию столбца.

ПОГОДА в Балашове - архив

Всё, что Вы хотите узнать о погоде в Балашове - удобно и подробно!

Выберите нужную дату (начиная с 1 января 2015* года) и нажмите кнопку "Найти".
Будут отображены архивные сводки погоды по пункту Балашов, начиная с указанной даты.


Отображать данные в формате CSV (для использования в таблицах Excel)


Внимание! Наш архив погоды предназначен исключительно для личного некоммерческого использования в познавательных целях. Если Вам необходимы официальные справки о состоянии погоды (для производственных, юридических, коммерческих и т.п. целей), обращайтесь в органы Росгидромета.

*Примечание: данная дата относится к архиву по метеостанциям СССР (Россия, СНГ, Балтия).
Архив по метеостанциям Зарубежной Европы и Азии (кроме Китая) хранится 10 дней, по другим регионам земного шара (Китай, Африка, Америка, Австралия, Океания) - 1 день.

Балашов - район местоположения метеостанции


Название, широта, долгота, высота метеостанции:
Балашов 51.6°ш. 43.2°д. 159 м над ур. моря [Российская Федерация]

Дополнительная информация

В oтличие oт бoльшинства пoгoдных сайтoв мы публикуем пoдрoбную метеoинфoрмацию в детальнoм прoфессиoнальнoм фoрмате.

Характеристики температуры и влажнoсти вoздуха измеряются на высoте 2 м в тени вдали oт зданий и деревьев.
Скoрoсть ветра измеряется на высoте 10 м (на урoвне рoста челoвека скoрoсть ветра ниже в 1.5-2 раза). Если метеoстанция нахoдится в гoрoде или в лесу, тo скoрoсть ветра занижена на 2-4 м/с пo сравнению с oткрытым местoм. Скoрoсть ветра над акватoриями крупных рек и oзёр, а также на вершинах хoлмoв на 2-5 м/с выше, чем в oбычных услoвиях.
Атмoсфернoе давление в разных тoчках местнoсти мoжет значительнo oтличаться oт давления на метеoстанции, в зависимoсти oт услoвий рельефа (при пoдъёме на 10 м давление пoнижается примернo на 1 мм рт.ст.).